Weather History for LKCV - March, 2013

Change the Weather History Date:

Thursday, March 14, 2013

  Actual Average Record
Temperature  
Mean Temperature 26 °F -  
Max Temperature 30 °F - - ()
Min Temperature 21 °F - - ()
Degree Days  
Heating Degree Days 40    
Moisture  
Dew Point 18 °F    
Average Humidity 75    
Maximum Humidity 93    
Minimum Humidity 51    
Precipitation  
Precipitation 0.00 in - - ()
Sea Level Pressure  
Sea Level Pressure 29.71 in    
Wind  
Wind Speed 9 mph ()    
Max Wind Speed 15 mph    
Max Gust Speed -    
Visibility 5.8 miles    
Events Snow    
T = Trace of Precipitation, MM = Missing Value Source: Averaged Metar Reports

Daily Weather History Graph

Daily Weather History Graph

Search for Another Location

Airport or City:

Trip Planner

Search our weather history database for the weather conditions in past years. The results will help you decide how hot, cold, wet, or windy it might be!

Date:

Astronomy

Mar. 14, 2013 Rise Set
Actual Time 6:14 AM CET 6:01 PM CET
Civil Twilight 5:42 AM CET 6:34 PM CET
Nautical Twilight 5:04 AM CET 7:11 PM CET
Astronomical Twilight 4:26 AM CET 7:50 PM CET
Moon 6:59 AM CET (3/14) 9:23 PM CET (3/14)
Length of Visible Light 12h 51m
Length of Day
11h 47m
Waxing Crescent, 7% of the Moon is Illuminated
Mar 14
Waxing Crescent
Mar 19
First Quarter
Mar 27
Full
Apr 3
Last Quarter
Apr 10
New

Hourly Weather History & Observations

Time (CET) Temp. Windchill Dew Point Humidity Pressure Visibility Wind Dir Wind Speed Gust Speed Precip Events Conditions
12:00 AM 24.8 °F 15.3 °F 21.2 °F 86% 29.68 in 6.2 mi NW 9.2 mph - N/A   Overcast
1:00 AM 23.0 °F 13.9 °F 21.2 °F 93% 29.68 in 6.2 mi NW 8.1 mph - N/A   Overcast
2:00 AM 23.0 °F 13.1 °F 21.2 °F 93% 29.68 in 6.2 mi WNW 9.2 mph - N/A   Overcast
4:00 AM 23.0 °F 12.4 °F 19.4 °F 86% 29.68 in 5.0 mi WNW 10.4 mph - N/A Snow Light Snow
5:00 AM 23.0 °F 13.1 °F 19.4 °F 86% 29.68 in 5.0 mi WNW 9.2 mph - N/A Snow Light Snow
6:00 AM 23.0 °F 13.1 °F 19.4 °F 86% 29.71 in 5.0 mi NW 9.2 mph - N/A Snow Light Snow
7:00 AM 23.0 °F 11.7 °F 19.4 °F 86% 29.71 in 5.0 mi WNW 11.5 mph - N/A Snow Light Snow
8:00 AM 21.2 °F 8.9 °F 19.4 °F 93% 29.71 in 5.0 mi NW 12.7 mph - N/A Snow Light Snow
9:00 AM 21.2 °F 8.3 °F 17.6 °F 86% 29.71 in 5.0 mi NW 13.8 mph - N/A Snow Light Snow
10:00 AM 23.0 °F 10.1 °F 15.8 °F 74% 29.71 in 6.2 mi NW 15.0 mph - N/A   Mostly Cloudy
11:00 AM 23.0 °F 13.9 °F 15.8 °F 74% 29.74 in 6.2 mi NW 8.1 mph - N/A   Mostly Cloudy
12:00 PM 26.6 °F 18.2 °F 19.4 °F 74% 29.71 in 6.2 mi NNW 8.1 mph - N/A   Mostly Cloudy
1:00 PM 26.6 °F 19.1 °F 15.8 °F 64% 29.71 in 6.2 mi NNW 6.9 mph - N/A   Mostly Cloudy
2:00 PM 28.4 °F 21.2 °F 17.6 °F 64% 29.68 in 6.2 mi North 6.9 mph - N/A   Scattered Clouds
4:00 PM 30.2 °F 21.9 °F 17.6 °F 60% 29.68 in 6.2 mi NNW 9.2 mph - N/A   Mostly Cloudy
5:00 PM 30.2 °F 19.3 °F 14.0 °F 51% 29.71 in 6.2 mi NNW 15.0 mph - N/A   Mostly Cloudy
6:00 PM 28.4 °F 17.0 °F 15.8 °F 59% 29.71 in 6.2 mi NW 15.0 mph - N/A   Mostly Cloudy
7:00 PM 26.6 °F 16.8 °F 15.8 °F 64% 29.74 in - NW 10.4 mph - N/A   Clear
8:00 PM 26.6 °F 18.2 °F 14.0 °F 59% 29.74 in - NNW 8.1 mph - N/A   Clear
9:00 PM 24.8 °F 16.1 °F 17.6 °F 74% 29.74 in - NW 8.1 mph - N/A   Clear
10:00 PM 24.8 °F 16.9 °F 17.6 °F 74% 29.74 in - NW 6.9 mph - N/A   Clear
11:00 PM 24.8 °F 15.3 °F 17.6 °F 74% 29.74 in - NW 9.2 mph - N/A   Clear